Tracking 30995 objects as of 5-Jul-2025
HD Live streaming from Space Station
objects crossing your sky now

SL-14 R/B

Track SL-14 R/B now!
10-day predictions


NORAD ID: 22652
Int'l Code: 1993-030G
Perigee: 1,410.7 km
Apogee: 1,423.2 km
Inclination: 82.6 °
Period: 114.0 minutes
Semi major axis: 7787 km
RCS: 0.9779 m2 (medium)
Launch date: May 11, 1993
Source: Commonwealth of Independent States (former USSR) (CIS)
Launch site: PLESETSK MISSILE AND SPACE COMPLEX (PKMTR)

Note: This is a ROCKET BODY
Your satellite tracking list
SJ-6G
Track 1 satellite(s)




NASA's NSSDC Master Catalog

Two Line Element Set (TLE):
1 22652U 93030G   25186.49054277  .00000032  00000-0  11888-3 0  9996
2 22652  82.5861 185.4897 0008008  16.4768  96.2973 12.63191263482261
Source of the keplerian elements: AFSPC